Regional Weather Roundup
Issued by NWS

Home | Current Version | Previous Version | Text Only | Print | Product List | Glossary On
Versions: 1 2 3 4 5 6 7 8 9 10 11 12 13 14 15 16 17 18 19 20 21 22 23 24 25 26 27 28 29 30 31 32 33 34 35 36 37 38 39 40 41 42 43 44 45 46 47 48 49 50
000
ASUS43 KMKX 231121
RWRWI

WISCONSIN REGIONAL WEATHER ROUNDUP
NATIONAL WEATHER SERVICE MILWAUKEE/SULLIVAN WI
600 AM CDT FRI JUN 23 2017

NOTE: "FAIR" INDICATES FEW OR NO CLOUDS BELOW 12,000 FEET WITH NO
SIGNIFICANT WEATHER AND/OR OBSTRUCTIONS TO VISIBILITY.

WIZ001-002-006>008-014>016-023>028-231200-
NORTHWEST WISCONSIN

CITY           SKY/WX    TMP DP  RH WIND       PRES   REMARKS
SUPERIOR ARPT  NOT AVBL
ASHLAND        CLEAR     54  51  90 SW8       29.65R
HAYWARD        CLEAR     49  47  93 SW3       29.68S FOG
SIREN          CLEAR     55  49  82 W6        29.70R
CUMBERLAND     CLEAR     52  50  93 W5        29.70S
RICE LAKE      CLEAR     54  54  97 CALM      29.71S
CHETEK         FOG       52  52 100 CALM      29.70S VSB 3/4
LADYSMITH      FOG       49  48  98 SW3       29.70F VSB 1/2
EAU CLAIRE     CLEAR     57  56  96 S5        29.69S
MENOMONIE      CLEAR     58  56  93 SW3       29.70R
NEW RICHMOND   CLEAR     54  53  98 W3        29.71R
OSCEOLA        CLEAR     51  51 100 CALM      29.74R
$$

WIZ003>005-009-010-017-018-231200-
NORTH CENTRAL WISCONSIN

CITY           SKY/WX    TMP DP  RH WIND       PRES   REMARKS
MANITOWISH WTR FOG       49  49 100 CALM      29.66F VSB<1/4
ARBOR VITAE    FOG       52  51  97 CALM      29.66F VSB 1
WOODRUFF       FOG       52  51  97 CALM      29.66F VSB 1
RHINELANDER    CLEAR     53  53 100 W5        29.68F
EAGLE RIVER    FOG       51  51 100 CALM      29.67S VSB 1/4
LAND O LAKES   CLEAR     50  50 100 CALM      29.68S
PHILLIPS       CLEAR     52  52 100 CALM      29.67F
TOMAHAWK       NOT AVBL
MEDFORD        CLEAR     56  55  96 SW5       29.71R
MERRILL        CLEAR     54  54 100 CALM      29.70R FOG
$$

WIZ029-030-035-036-043>047-231200-
CENTRAL WISCONSIN

CITY           SKY/WX    TMP DP  RH WIND       PRES   REMARKS
WAUSAU         CLEAR     57  57 100 CALM      29.69R FOG
MOSINEE        PTCLDY    55  55 100 SW3       29.72R
MARSHFIELD     CLOUDY    57  55  93 W6        29.71R FOG
STEVENS POINT  FOG       58  58 100 W3        29.71S VSB 1
WAUPACA        CLOUDY    64  64  98 W5        29.71S
WAUTOMA        FOG       63  61  94 W7        29.72R VSB 1/4
WISC RAPIDS    MOCLDY    61  60  97 W3        29.73R
CAMP DOUGLAS   FOG       57  57 100 CALM      29.72R VSB 1/2
$$

WIZ011>013-019>022-031-037>040-048>050-231200-
NORTHEAST WISCONSIN

CITY           SKY/WX    TMP DP  RH WIND       PRES   REMARKS
ANTIGO         FOG       53  53 100 CALM      29.71R VSB<1/4
SHAWANO        PTCLDY    63  61  94 W6        29.68R
OCONTO         CLEAR     61  60  97 W5        29.65R
STURGEON BAY     N/A     63  62  97 SW3         N/A
GREEN BAY      MOCLDY    64  64 100 CALM      29.68R
MANITOWOC      CLOUDY    65  63  93 NW10      29.67R
APPLETON       NOT AVBL
CLINTONVILLE   PTCLDY    61  61 100 W6        29.69R
OSHKOSH        CLOUDY    64  63  96 W5        29.68S
$$

WIZ032>034-041-042-053>061-231200-
SOUTHWEST WISCONSIN

CITY           SKY/WX    TMP DP  RH WIND       PRES   REMARKS
LA CROSSE      FOG       61  61 100 CALM      29.73R VSB 1/4
SPARTA         FOG       55  55 100 CALM      29.74R VSB<1/4
VIROQUA        CLOUDY    59  59 100 W3        29.75S VSB<1/4
BOSCOBEL       MOCLDY    61  59  93 SW3       29.74F FOG
PRAIRIE DU CHI MOCLDY    63  61  96 E3        29.74S FOG
PLATTEVILLE    CLOUDY    63  62  97 NW3       29.75R
$$

WIZ056-057-062-063-064-067-068-231200-
SOUTH CENTRAL WISCONSIN

CITY           SKY/WX    TMP DP  RH WIND       PRES   REMARKS
REEDSBURG      PTCLDY    61  61 100 CALM      29.73R FOG
BARABOO/DELLS  PTCLDY    62  60  96 NW5       29.73R FOG
LONE ROCK      FOG       60  59  96 CALM      29.72F VSB 1/4
MINERAL POINT  PTCLDY    61  61 100 CALM      29.74S
MADISON        CLOUDY    61  60  97 NW5       29.70F
MIDDLETON      CLOUDY    62  62 100 CALM      29.72F
WATERTOWN      CLOUDY    62  62 100 CALM      29.70R
MONROE         CLOUDY    63  61  94 N8        29.72R
JANESVILLE     CLOUDY    64  64 100 N5        29.69S
$$

WIZ051-052-058>065-066-070>072-231200-
SOUTHEAST WISCONSIN

CITY           SKY/WX    TMP DP  RH WIND       PRES   REMARKS
MILWAUKEE      CLOUDY    65  64  97 N3        29.68S
WAUKESHA       CLOUDY    63  63 100 NW7       29.65S
MILWAUKEE/TIMM CLOUDY    63  61  94 W5        29.69S
RACINE         LGT RAIN  65  63  93 N8        29.69R
KENOSHA        CLOUDY    66  63  90 N9        29.68R
FOND DU LAC    PTCLDY    65  62  90 NW7       29.69S
SHEBOYGAN      MOCLDY    66  65  96 NW6       29.66S
WEST BEND      CLOUDY    63  63 100 NW7       29.68S
JUNEAU         CLOUDY    61  58  91 CALM      29.72R
$$

LSZ147-162-231200-
LAKE SUPERIOR

STATION/POSITION TIME  TEMP    WIND        PRES    WAVE
                       AIR SEA DIR/SP/G            HT/PER
                 (UTC) (F)     (DEG/KT/KT) (MB)    (FT/S)
W MID LAKE BUOY  1050   45 39  230/ 10/ 10 1002.1F   1
DEVILS ISLAND    1100   56     230/ 14/ 16 1002.9R
SAXON HARBOR     1030   59     200/  7/ 10 1003.4R
$$

LMZ867-665-643>646-231200-
LAKE MICHIGAN

STATION/POSITION TIME  TEMP    WIND        PRES    WAVE
                       AIR SEA DIR/SP/G            HT/PER
                 (UTC) (F)     (DEG/KT/KT) (MB)    (FT/S)
CHAMBERS ISLAND  1040   61     200/  1/  2 1003.4S
S GREEN BAY BUOY 1100   65     260/  6/  6 1004.3
N MID LAKE BUOY  1050   58 55  280/ 10/ 10 1003.6R   1/ 5
NORTHPORT PIER   1040   63     270/  4/  6 1003.4R
KEWAUNEE LAKESHO 1054   65     280/  4/  5 1004.2R
SHEBOYGAN LAKESH 1100   66     290/  8/ 10 1003.7F
PORT WASHINGTON  1040   65     280/  4/  6 1005.4F
ATWATER BUOY     0909   61 59  260/  4/  6 1005.2R
MILWAUKEE LAKESH 1100   63     290/  2/  2   N/A
S MID LAKE BUOY  1050   62 61  360/ 10/ 12 1003.7F   2/ 4
KENOSHA   LAKESH 1100   65     360/  8/ 12 1005.1
$$

TC  - TEMPERATURE IN CELSIUS
VSB - VISIBILITY IN STATUTE MILES
WCI - WIND CHILL INDEX
HX  - HEAT INDEX




USA.gov is the U.S. government's official web portal to all federal, state and local government web resources and services.